Home > Weather > Milan > Past weeks

Flag for Italy Weather for the Past 2 Weeks in Milan, Italy

Now
45 °F

Scattered clouds.


Feels Like: 43 °F
Forecast: 35 / 42 °F
Wind: 3 mph from South

Location: Milan / Linate

Current Time: Feb 13, 2016 at 3:02:24 PM

Latest Report: Feb 13, 2016 at 2:20 PM


Visibility: 4 mi

Pressure: 29.45 "Hg

Humidity: 71%

Dew point: 36 °F

Location of MilanLocation

Historic Weather in Milan — Graph

°F

Milan Temperature Yesterday

Maximum temperature yesterday: 46 °F (at 11:50 AM)
Minimum temperature yesterday: 37 °F (at 12:50 AM)
Average temperature yesterday: 41 °F

High & Low Weather Summary for the Past Weeks

 TemperatureHumidityPressure
High59 °F (Jan 29, 3:20 PM)100% (Jan 30, 7:20 PM)30.48 "Hg (Jan 30, 7:20 PM)
Low30 °F (Feb 11, 5:20 AM)18% (Feb 10, 2:20 PM)29.33 "Hg (Feb 10, 12:50 AM)
Average44 °F78%30.00 "Hg
* Reported Jan 29 1:20 PM — Feb 13 1:50 PM, Milan, Weather by CustomWeather, © 2016

Note: Actual official high and low records may vary slightly from our data, if they occured in-between our weather recording intervals... More about our weather records

Advertising

Milan Weather History for the Previous 24 Hours

 ConditionsComfort  
Time TempWeatherWind HumidityBarometerVisibility
1:50 PM
Sat, Feb 13
43 °FScattered clouds.3 mph81%29.45 "Hg4 mi
1:20 PM43 °FScattered clouds.2 mph81%29.45 "Hg4 mi
12:50 PM41 °FFog.6 mph81%29.45 "Hg3 mi
12:20 PM41 °FFog.5 mph81%29.45 "Hg3 mi
11:50 AM39 °FFog.3 mph87%29.45 "Hg3 mi
11:20 AM39 °FFog.5 mph81%29.47 "Hg3 mi
10:50 AM39 °FFog.5 mph81%29.45 "Hg2 mi
10:20 AM37 °FFog.3 mph93%29.45 "Hg1 mi
9:50 AM36 °FFog.7 mph87%29.47 "Hg2 mi
9:20 AM36 °FFog.6 mph93%29.47 "Hg2 mi
8:50 AM36 °FFog.5 mph93%29.47 "Hg1 mi
8:20 AM34 °FFog.7 mph93%29.47 "Hg1 mi
7:50 AM36 °FFog.6 mph93%29.47 "Hg2 mi
7:20 AM36 °FFog.6 mph93%29.47 "Hg3 mi
6:50 AM36 °FClear.7 mph93%29.45 "Hg4 mi
6:20 AM36 °FFog.7 mph93%29.45 "Hg3 mi
5:50 AM36 °FFog.8 mph93%29.45 "Hg3 mi
5:20 AM36 °FFog.6 mph93%29.45 "Hg3 mi
4:50 AM36 °FFog.7 mph93%29.45 "Hg3 mi
4:20 AM37 °FFog.7 mph87%29.45 "Hg3 mi
3:50 AM37 °FFog.6 mph93%29.45 "Hg2 mi
3:20 AM37 °FFog.5 mph93%29.45 "Hg2 mi
2:50 AM37 °FFog.6 mph93%29.47 "Hg2 mi
2:20 AM37 °FFog.7 mph93%29.47 "Hg2 mi
1:50 AM37 °FFog.7 mph93%29.47 "Hg2 mi
1:20 AM37 °FFog.6 mph93%29.47 "Hg3 mi
12:50 AM37 °FFog.6 mph93%29.47 "Hg3 mi
12:20 AM39 °FFog.6 mph87%29.50 "Hg3 mi
11:50 PM
Fri, Feb 12
39 °FFog.6 mph87%29.50 "Hg3 mi
10:50 PM37 °FFog.3 mph93%29.50 "Hg3 mi
10:20 PM39 °FFog.2 mph93%29.53 "Hg3 mi
9:50 PM39 °FDrizzle. Fog.1 mph93%29.53 "Hg2 mi
9:20 PM39 °FLight rain. Fog.1 mph87%29.53 "Hg2 mi
8:50 PM39 °FLight rain. Fog.2 mph93%29.53 "Hg2 mi
8:20 PM39 °FLight rain. Fog.2 mph93%29.53 "Hg2 mi
7:50 PM39 °FLight rain. Fog.3 mph87%29.53 "Hg2 mi
7:20 PM39 °FLight rain. Fog.5 mph87%29.56 "Hg2 mi
6:50 PM39 °FLight rain. Fog.6 mph87%29.53 "Hg2 mi
6:20 PM39 °FLight rain. Fog.6 mph87%29.53 "Hg2 mi
5:50 PM39 °FLight rain. Fog.6 mph87%29.56 "Hg2 mi
5:20 PM39 °FLight rain. Mostly cloudy.7 mph87%29.56 "Hg6 mi
4:50 PM41 °FLight rain. Mostly cloudy.6 mph81%29.56 "Hg6 mi
4:20 PM41 °FRain. Mostly cloudy.5 mph81%29.59 "Hg4 mi
3:50 PM41 °FRain. Mostly cloudy.3 mph81%29.59 "Hg4 mi
3:20 PM43 °FLight rain. Mostly cloudy.6 mph71%29.59 "HgN/A
Weather by CustomWeather, © 2016

See weather overviewHow to use our weather pages